International Skating Union - Official Site

Essent ISU World Cup Hamar
November 27-28, 2010

Draw | Lap Times | Index | World Cup

Referee: Jacques  DE KONING  (NED)
Starter: Sebastiaan  ZAMANI  (SWE)
StartTime: EndTime: Air Temp: Ice Temp: Humidity:
16:27 16:44 16 ℃ -11.1 ℃ 15.8
Result Team Pursuit Ladies
Rankings as of Nov 28 2010 4:54PM
Rank: No.: Team: Nation: Time: Behind: Points:
Total 7
1 10 Canada (4) Cindy KLASSEN (5) Christine NESBITT (6) Brittany SCHUSSLER CAN CAN 3:00.900.5 - 19.25 - (19.2)
1.0 - 33.61 - (14.3)
1.5 - 47.89 - (14.2)
2.0 - 1:02.23 - (14.3)
2.5 - 1:16.89 - (14.6)
3.0 - 1:31.76 - (14.8)
3.5 - 1:46.72 - (14.9)
4.0 - 2:01.43 - (14.7)
4.5 - 2:16.06 - (14.6)
5.0 - 2:30.79 - (14.7)
5.5 - 2:45.85 - (15.0)
6.0 - 3:00.90 - (15.0)
100
2 5 Russia (42) Yekaterina LOBYSHEVA (43) Yekaterina SHIKHOVA (44) Yuliya SKOKOVA RUS RUS 3:03.900.5 - 19.06 - (19.0)
1.0 - 33.36 - (14.3)
1.5 - 47.95 - (14.5)
2.0 - 1:02.61 - (14.6)
2.5 - 1:17.45 - (14.8)
3.0 - 1:32.15 - (14.7)
3.5 - 1:47.16 - (15.0)
4.0 - 2:02.13 - (14.9)
4.5 - 2:17.57 - (15.4)
5.0 - 2:32.98 - (15.4)
5.5 - 2:48.31 - (15.3)
6.0 - 3:03.90 - (15.5)
3.00 80
3 2 Netherlands (24) Marije JOLING (27) Marrit LEENSTRA (31) Jorien VOORHUIS NED NED 3:04.620.5 - 19.24 - (19.2)
1.0 - 33.90 - (14.6)
1.5 - 48.47 - (14.5)
2.0 - 1:02.64 - (14.1)
2.5 - 1:17.27 - (14.6)
3.0 - 1:32.03 - (14.7)
3.5 - 1:47.31 - (15.2)
4.0 - 2:02.90 - (15.5)
4.5 - 2:18.87 - (15.9)
5.0 - 2:34.26 - (15.3)
5.5 - 2:49.51 - (15.2)
6.0 - 3:04.62 - (15.0)
3.72 70
4 3 Norway (33) Hege BØKKO (35) Mari HEMMER (36) Ida NJÅTUN NOR NOR 3:05.300.5 - 18.88 - (18.8)
1.0 - 33.04 - (14.1)
1.5 - 47.36 - (14.3)
2.0 - 1:01.84 - (14.4)
2.5 - 1:16.76 - (14.9)
3.0 - 1:31.81 - (15.0)
3.5 - 1:47.18 - (15.3)
4.0 - 2:02.92 - (15.7)
4.5 - 2:18.80 - (15.8)
5.0 - 2:34.36 - (15.5)
5.5 - 2:49.72 - (15.3)
6.0 - 3:05.30 - (15.5)
4.40 60
5 7 Poland (37) Natalia CZERWONKA (39) Katarzyna WOZNIAK (40) Luiza ZLOTKOWSKA POL POL 3:07.280.5 - 19.33 - (19.3)
1.0 - 34.20 - (14.8)
1.5 - 49.16 - (14.9)
2.0 - 1:04.54 - (15.3)
2.5 - 1:20.17 - (15.6)
3.0 - 1:35.65 - (15.4)
3.5 - 1:50.96 - (15.3)
4.0 - 2:06.13 - (15.1)
4.5 - 2:21.15 - (15.0)
5.0 - 2:36.39 - (15.2)
5.5 - 2:51.64 - (15.2)
6.0 - 3:07.28 - (15.6)
6.38 50
6 1 Germany (10) Jennifer BAY (13) Katrin MATTSCHERODT (14) Isabell OST GER GER 3:08.100.5 - 19.65 - (19.6)
1.0 - 34.47 - (14.8)
1.5 - 48.74 - (14.2)
2.0 - 1:03.59 - (14.8)
2.5 - 1:18.73 - (15.1)
3.0 - 1:34.32 - (15.5)
3.5 - 1:49.72 - (15.4)
4.0 - 2:05.33 - (15.6)
4.5 - 2:20.77 - (15.4)
5.0 - 2:36.58 - (15.8)
5.5 - 2:52.35 - (15.7)
6.0 - 3:08.10 - (15.7)
7.20 45
7 9 Japan (16) Eriko ISHINO (17) Shiho ISHIZAWA (19) Ayaka KIKUCHI JPN JPN 3:08.220.5 - 19.67 - (19.6)
1.0 - 34.66 - (14.9)
1.5 - 49.62 - (14.9)
2.0 - 1:04.41 - (14.7)
2.5 - 1:19.45 - (15.0)
3.0 - 1:34.39 - (14.9)
3.5 - 1:49.72 - (15.3)
4.0 - 2:05.06 - (15.3)
4.5 - 2:20.69 - (15.6)
5.0 - 2:36.30 - (15.6)
5.5 - 2:52.17 - (15.8)
6.0 - 3:08.22 - (16.0)
7.32 40